This is the latest recevied weather packets stored in our database for station/object KC2GYU. If no packets are shown the sender has not sent any weather packets the latest 10 day(s).
| Time | Temp. | Humidity | Pressure | Rain* | Wind** | Luminosity | Snow |
|---|---|---|---|---|---|---|---|
| 1777573863 | 17.22° C | 75% | 1007.8 hPa | 0 mm | - | 221 W/m² | - |
| 1777573558 | 17.22° C | 74% | 1007.6 hPa | 0 mm | - | 201 W/m² | - |
| 1777573255 | 18.33° C | 71% | 1007.6 hPa | 0 mm | - | 152 W/m² | - |
| 1777572951 | 17.78° C | 72% | 1007.5 hPa | 0 mm | - | 779 W/m² | - |
| 1777572647 | 16.67° C | 74% | 1007.6 hPa | 0 mm | - | 297 W/m² | - |
| 1777572347 | 17.22° C | 74% | 1007.8 hPa | 0 mm | - | 235 W/m² | - |
| 1777572044 | 17.22° C | 75% | 1007.9 hPa | 0 mm | - | 396 W/m² | - |
| 1777571743 | 16.67° C | 75% | 1008.1 hPa | 0 mm | - | 283 W/m² | - |
| 1777571442 | 16.67° C | 75% | 1008 hPa | 0 mm | - | 262 W/m² | - |
| 1777571138 | 17.22° C | 76% | 1008 hPa | 0 mm | - | 236 W/m² | - |
| 1777570833 | 17.22° C | 75% | 1008.1 hPa | 0 mm | - | 301 W/m² | - |
| 1777570529 | 16.67° C | 77% | 1008.1 hPa | 0 mm | - | 234 W/m² | - |
| 1777570226 | 17.22° C | 74% | 1008.1 hPa | 0 mm | - | 387 W/m² | - |
| 1777569921 | 17.22° C | 75% | 1008 hPa | 0 mm | - | 306 W/m² | - |
| 1777569617 | 16.67° C | 78% | 1008.2 hPa | 0 mm | - | 698 W/m² | - |
| 1777569314 | 16.67° C | 77% | 1008.2 hPa | 0 mm | - | 245 W/m² | - |
| 1777569010 | 16.67° C | 78% | 1007.9 hPa | 0 mm | - | 715 W/m² | - |
| 1777568707 | 16.11° C | 78% | 1008 hPa | 0 mm | - | 298 W/m² | - |
| 1777568404 | 16.67° C | 79% | 1008.1 hPa | 0 mm | - | 309 W/m² | - |
| 1777568101 | 16.11° C | 80% | 1008.2 hPa | 0 mm | - | 417 W/m² | - |
| 1777567798 | 16.11° C | 82% | 1008.2 hPa | 0 mm | - | 317 W/m² | - |
| 1777567494 | 16.11° C | 82% | 1008.1 hPa | 0 mm | - | 241 W/m² | - |
| 1777567192 | 15.56° C | 82% | 1008.5 hPa | 0 mm | - | 204 W/m² | - |
| 1777566890 | 15.56° C | 82% | 1008.2 hPa | 0 mm | - | 187 W/m² | - |
| 1777566588 | 16.11° C | 82% | 1008.4 hPa | 0 mm | - | 121 W/m² | - |
* Rain latest hour (hover to see other rain measurements)
** Current wind speed in m/s (hover to see current wind gust speed)